KFXEKEYW

Guest
Details From KFXE - Fort Lauderdale Executive
To KEYW - Key West Intl
Flight Number -
Tags generated
Created
Modified
Stats Distance 131 nm / 243 km
Max Altitude 8,000 ft / 2,438 m
Waypoints 3
Social Downloads 2
Likes 0
Share VATSIM

Download

Looking for another format? Having issues loading an existing format? Contact us
Advertisement - Login to hide

Notes

Basic altitude profile: - Ascent Rate: 2500ft/min - Ascent Speed: 85kts - Cruise Altitude: 8000ft - Cruise Speed: 120kts - Descent Rate: 1500ft/min - Descent Speed: 70kts

Route

KFXE OHOFO KEYW

ID Type Via Altitude Latitude Longitude Leg Dist Tot Dist Heading (true) Name
O KFXE APT - 0 ft / 0 m 26.19698˚ -80.17044˚ - 0 nm - Fort Lauderdale Executive
OHOFO FIX - 8,000 ft / 2,438 m 25.85810˚ -80.50062˚ 27 nm 27 nm 221° / 221° -
O KEYW APT - 0 ft / 0 m 24.55612˚ -81.75955˚ 103 nm 130 nm 221° / 221° Key West Intl

Altitude Profile

Advertisement - Login to hide

KFXE

Details ICAO KFXE (FXE)
Name Fort Lauderdale Executive
Region United States
Timezone America/New_York (UTC-4.0)
Stats Elevation 13 ft / 4 m (AMSL)
Location 26.196981° -80.170441°
Runways 2
Magnetic Variation 6.817° W

METAR

KFXE 241353Z 12010KT 10SM SCT023 SCT029 SCT036 28/23 A3008 RMK AO2 SLP189 T02780228

Decode

TAF

KFXE 241134Z 2412/2512 13004KT P6SM SCT070 BKN150 FM241400 12008KT P6SM VCSH SCT025 BKN050 BKN070 FM242300 12005KT P6SM SCT025 BKN050 FM250500 11003KT P6SM VCSH BKN035

Decode

Departure Runways

ID Width Length Bearing (true) Bearing (mag) Surface Threshold Offset Overrun Length
08 100 ft / 30 m 5,992 ft / 1,826 m 83.75° 90.57° Asphalt 0 ft / 0 m 0 ft / 0 m
13 100 ft / 30 m 4,002 ft / 1,220 m 128.95° 135.77° Asphalt 0 ft / 0 m 0 ft / 0 m
26 100 ft / 30 m 5,992 ft / 1,826 m 263.76° 270.58° Asphalt 0 ft / 0 m 0 ft / 0 m
31 100 ft / 30 m 4,002 ft / 1,220 m 308.95° 315.77° Asphalt 0 ft / 0 m 0 ft / 0 m

KEYW

Details ICAO KEYW (EYW)
Name Key West Intl
Region United States
Timezone America/New_York (UTC-4.0)
Stats Elevation 2 ft / 1 m (AMSL)
Location 24.556124° -81.759546°
Runways 1
Magnetic Variation 5.593° W

METAR

KEYW 241353Z 08007KT 10SM SCT023 27/24 A3006 RMK AO2 SLP180 T02720244

Decode

TAF

KEYW 241125Z 2412/2512 10008KT P6SM SCT025 SCT120 FM250300 12010KT P6SM VCSH SCT020 BKN100

Decode

Destination Runways

ID Width Length Bearing (true) Bearing (mag) Surface Threshold Offset Overrun Length
09 100 ft / 30 m 4,794 ft / 1,461 m 89.38° 94.97° Asphalt 151 ft / 46 m 0 ft / 0 m
27 100 ft / 30 m 4,794 ft / 1,461 m 269.39° 274.98° Asphalt 151 ft / 46 m 0 ft / 0 m

Popular Alternatives